CAPE
0 0 0 0 0 0 0 0 0 0 0 8 0 0 13 1 13 72 54 71 59 88 132 118 76 3 0 0 0 0 0 0 0 0 0 0 1 1
0 0 0 0 0 0 0 0 0 0 0 0 0 0 0 37 17 22 12 21 16 7 99 60 0 0 0 0 0 0 0 0 0 0 0 0 0 1
0 0 0 0 0 0 0 0 0 0 0 0 0 0 0 13 43 13 18 25 7 3 16 1 0 0 0 0 0 0 0 0 0 0 0 0 0 3
0 0 0 0 0 0 0 0 0 0 0 0 0 0 0 2 41 26 38 31 26 27 0 0 0 0 0 0 0 0 0 0 0 0 0 0 1 0
0 0 0 0 0 0 0 0 0 0 0 0 0 0 0 0 0 13 9 2 13 10 0 0 0 0 0 0 0 0 0 0 0 0 0 0 0 2
0 0 0 0 0 0 0 0 0 0 0 0 0 0 0 0 0 2 21 23 10 4 0 0 0 0 0 0 0 0 0 0 0 0 0 0 0 1
0 0 0 0 0 0 0 0 0 0 0 0 0 0 0 0 0 0 1 7 8 0 1 0 0 1 0 0 0 0 0 0 0 0 0 0 0 0
0 0 0 0 0 0 0 0 0 0 0 0 0 0 0 0 0 0 1 2 9 0 0 0 0 0 1 0 0 0 0 0 0 0 0 0 0 0
0 0 0 0 0 0 0 0 0 2 6 9 9 1 0 0 0 0 0 0 1 10 1 0 1 0 0 0 0 0 0 0 0 0 0 0 0 0
1 0 0 0 0 0 0 0 0 0 0 0 0 0 0 0 0 0 0 0 0 0 0 6 0 0 0 0 0 0 0 0 0 0 0 0 0 0
0 0 0 0 0 0 0 0 0 0 0 0 0 0 0 0 0 0 0 0 0 0 0 0 1 0 0 0 0 0 0 0 0 0 0 0 0 0
0 0 0 0 0 0 0 0 0 0 0 0 0 0 0 0 0 0 0 0 0 0 2 0 0 0 0 0 0 0 0 0 0 0 0 0 1 0
0 0 0 0 0 0 0 0 0 0 0 0 0 0 0 0 0 0 0 0 0 1 0 26 2 0 0 0 0 0 0 0 0 0 1 1 2 0
2 1 2 0 1 3 4 0 0 0 0 0 0 0 0 0 0 0 0 0 0 0 0 0 0 0 0 0 0 0 0 0 0 0 0 0 0 0
5 3 1 0 0 0 2 0 0 0 0 0 0 0 0 0 0 0 0 0 0 0 0 0 0 0 0 0 0 0 0 0 0 0 0 0 0 0
0 0 0 0 1 1 0 0 0 0 0 0 0 0 0 0 0 0 0 0 0 0 0 0 25 25 21 0 0 0 0 0 0 0 0 1 0 0
1 1 1 0 0 0 0 0 0 0 0 0 0 0 2 0 0 0 0 0 0 0 0 3 37 62 39 1 0 0 0 0 0 1 1 0 1 0
1 1 2 2 2 2 1 0 0 0 0 0 0 0 0 2 0 0 0 0 0 0 0 1 16 18 17 0 0 0 0 0 0 1 0 0 1 1
2 3 3 3 2 2 2 1 0 0 0 0 0 0 0 0 0 1 0 0 0 0 0 4 26 27 30 10 1 0 2 0 0 1 0 0 0 1
0 2 3 3 1 2 1 1 1 0 0 0 0 0 0 0 0 0 0 1 0 3 8 35 34 33 27 1 0 0 0 0 0 0 0 0 1 0
1 1 1 1 2 3 3 2 1 1 1 1 0 0 0 5 1 0 0 0 0 0 2 3 1 6 1 0 0 1 0 0 0 1 0 0 0 1
1 1 0 1 1 2 3 2 1 2 2 0 0 0 0 0 0 0 0 0 0 0 0 0 0 5 0 17 0 0 0 1 0 0 0 0 0 0
0 1 1 1 1 2 3 2 3 1 1 1 1 1 0 0 0 1 0 0 0 0 0 0 0 0 0 0 0 0 0 1 3 1 0 0 0 0
CIN
-0 -0 -0 -0 -0 -0 -0 -0 -0 -0 -0 -5 -0 -0 -85 -7 -144 -143 -88 -84 -41 -88 -59 -46 -90 -138 -0 -0 -0 -0 -0 -0 -0 -0 -0 -0 -0 -0
-0 -0 -0 -0 -0 -0 -0 -0 -0 -0 -0 -0 -0 -0 -0 -90 -106 -98 -120 -127 -37 -19 -56 -113 -0 -0 -0 -0 -0 -0 -0 -0 -0 -0 -0 -0 -0 -0
-0 -0 -0 -0 -0 -0 -0 -0 -0 -0 -0 -0 -0 -0 -0 -14 -74 -82 -128 -134 -109 -99 -114 -70 -0 -0 -0 -0 -0 -0 -0 -0 -0 -0 -0 -0 -0 -0
-0 -0 -0 -0 -0 -0 -0 -0 -0 -0 -0 -0 -0 -0 -0 -6 -48 -53 -66 -106 -90 -90 -114 -0 -0 -0 -0 -0 -0 -0 -0 -0 -0 -0 -0 -0 -0 -0
-0 -0 -0 -0 -0 -0 -0 -0 -0 -0 -0 -0 -0 -0 -0 -0 -17 -38 -60 -78 -93 -86 -0 -0 -0 -0 -0 -0 -0 -0 -0 -0 -0 -0 -0 -0 -0 -0
-0 -0 -0 -0 -0 -0 -0 -0 -0 -0 -0 -0 -0 -0 -0 -0 -0 -0 -14 -25 -64 -79 -0 -0 -0 -0 -0 -0 -0 -0 -0 -0 -0 -0 -0 -0 -0 -0
-0 -0 -0 -0 -0 -0 -0 -0 -0 -0 -0 -0 -0 -0 -0 -0 -0 -0 -0 -27 -53 -0 -0 -0 -0 -0 -0 -0 -0 -0 -0 -0 -0 -0 -0 -0 -0 -0
-0 -0 -0 -0 -0 -0 -0 -0 -0 -0 -0 -0 -0 -0 -0 -0 -0 -0 -0 -0 -0 -0 -0 -0 -0 -0 -0 -0 -0 -0 -0 -0 -0 -0 -0 -0 -0 -0
-0 -0 -0 -0 -0 -0 -0 -0 -0 -26 -19 -12 -8 -5 -0 -0 -0 -0 -0 -0 -16 -0 -0 -0 -0 -0 -0 -0 -0 -0 -0 -0 -0 -0 -0 -0 -0 -0
-2 -1 -0 -0 -0 -0 -0 -0 -0 -0 -0 -0 -0 -0 -0 -0 -0 -0 -0 -0 -0 -0 -0 -1 -0 -0 -0 -0 -0 -0 -0 -0 -0 -0 -0 -0 -0 -0
-0 -2 -3 -0 -0 -0 -0 -0 -0 -0 -0 -0 -0 -0 -0 -0 -0 -0 -0 -0 -0 -0 -0 -0 -0 -0 -0 -0 -0 -0 -0 -0 -0 -0 -0 -0 -0 -0
-0 -0 -6 -7 -0 -0 -0 -0 -0 -0 -0 -0 -0 -0 -0 -0 -0 -0 -0 -0 -0 -0 -1 -0 -0 -0 -0 -0 -0 -0 -0 -0 -0 -0 -0 -0 -0 -0
-0 -0 -1 -0 -7 -8 -15 -0 -0 -0 -0 -0 -0 -0 -0 -0 -0 -0 -0 -0 -0 -0 -0 -58 -32 -0 -0 -0 -0 -0 -0 -0 -0 -0 -0 -0 -0 -0
-6 -7 -12 -8 -21 -21 -18 -0 -0 -0 -0 -0 -0 -0 -0 -0 -0 -0 -0 -0 -0 -0 -0 -0 -0 -0 -0 -0 -0 -0 -0 -0 -0 -0 -0 -0 -0 -0
-10 -13 -17 -2 -0 -16 -13 -5 -0 -0 -0 -0 -0 -0 -0 -0 -0 -0 -0 -0 -0 -0 -0 -0 -0 -0 -0 -0 -0 -0 -0 -0 -0 -0 -0 -0 -0 -0
-0 -0 -0 -0 -19 -14 -10 -0 -3 -0 -0 -0 -0 -0 -0 -0 -0 -0 -0 -0 -0 -0 -0 -6 -40 -13 -11 -0 -0 -0 -0 -0 -0 -0 -0 -0 -0 -0
-0 -0 -0 -0 -0 -0 -0 -2 -0 -0 -0 -0 -0 -0 -4 -4 -0 -0 -0 -0 -0 -0 -0 -31 -54 -35 -34 -8 -0 -0 -0 -0 -0 -0 -0 -0 -0 -0
-0 -0 -0 -0 -0 -1 -4 -6 -0 -0 -3 -0 -0 -0 -1 -3 -0 -0 -0 -0 -0 -0 -0 -28 -47 -37 -47 -0 -0 -0 -0 -0 -0 -0 -0 -0 -0 -0
-0 -0 -0 -0 -0 -0 -0 -0 -0 -0 -0 -1 -6 -0 -0 -0 -0 -10 -0 -0 -0 -0 -3 -48 -31 -23 -9 -43 -0 -0 -0 -0 -0 -0 -0 -0 -0 -0
-0 -0 -0 -0 -0 -0 -0 -0 -0 -0 -0 -0 -0 -0 -0 -0 -0 -0 -6 -8 -0 -19 -24 -11 -15 -19 -13 -18 -0 -0 -0 -0 -0 -0 -0 -0 -0 -0
-0 -0 -0 -1 -0 -0 -0 -0 -0 -0 -0 -0 -0 -1 -1 -2 -6 -0 -0 -0 -5 -0 -23 -23 -4 -28 -3 -0 -0 -0 -0 -0 -0 -0 -0 -0 -0 -0
-0 -0 -0 -0 -0 -0 -0 -0 -0 -0 -0 -0 -0 -1 -1 -0 -0 -6 -0 -0 -0 -0 -0 -0 -0 -34 -4 -25 -0 -0 -0 -0 -0 -0 -0 -0 -0 -0
-0 -0 -0 -0 -0 -0 -1 -0 -0 -0 -0 -0 -0 -0 -1 -1 -0 -9 -0 -0 -0 -0 -0 -0 -5 -0 -0 -0 -0 -0 -0 -0 -0 -0 -0 -0 -0 -0
Wind_Speed
28 29 29 29 29 29 29 29 29 30 30 26 28 31 30 27 24 20 20 21 23 22 10 7 1 2 4 5 7 10 13 16 19 22 24 26 24 26
28 30 31 31 31 30 30 29 28 28 26 29 32 32 33 27 26 22 18 21 26 25 8 4 1 2 3 4 7 10 12 15 18 21 25 26 22 23
29 31 32 32 33 32 30 29 29 28 29 32 32 33 30 30 24 24 20 22 23 22 14 6 3 3 3 5 8 9 12 14 17 20 25 25 20 20
31 33 35 35 35 32 31 29 28 28 28 34 33 33 32 30 24 24 19 20 21 16 9 9 9 7 7 9 7 8 12 13 17 20 23 24 19 21
32 34 37 35 33 31 30 30 29 29 30 30 33 32 32 27 26 23 24 22 18 14 12 10 9 11 11 9 11 10 12 14 16 19 21 22 20 18
33 34 35 33 31 30 30 30 30 30 30 31 31 32 30 29 26 26 25 20 16 14 11 16 14 19 16 15 13 11 10 13 16 18 20 21 19 17
32 33 32 31 31 30 30 29 29 29 30 30 30 30 30 30 28 28 27 25 15 15 14 14 18 23 27 24 21 12 9 9 14 17 20 18 18 15
32 31 31 30 31 31 30 29 27 28 30 29 29 30 30 29 28 27 27 23 21 14 13 19 14 20 29 28 23 14 8 7 12 16 18 16 18 14
30 30 29 29 29 31 31 30 29 26 26 27 27 26 28 29 30 29 28 29 26 20 14 12 13 18 28 30 24 16 8 7 11 14 15 15 17 16
27 28 28 29 28 30 30 29 28 26 26 26 28 29 29 32 32 32 33 33 31 22 17 18 16 19 21 28 23 18 9 4 8 12 13 14 16 17
29 26 27 28 29 28 28 29 29 26 27 31 32 32 35 35 34 34 35 33 33 27 22 22 19 17 17 23 23 16 9 3 6 10 11 13 15 15
30 30 26 28 28 27 28 28 30 31 35 37 37 36 35 36 36 33 33 36 34 31 23 21 22 18 20 22 24 15 10 5 4 7 10 11 12 13
31 32 31 30 30 27 27 27 28 30 34 36 37 36 36 35 35 35 34 35 35 34 31 26 24 23 23 20 23 21 12 11 9 7 11 12 11 12
33 32 30 30 31 30 30 29 30 32 35 36 36 35 35 34 33 32 34 35 37 37 37 31 27 25 23 22 23 24 20 16 10 9 6 10 11 12
29 31 33 34 34 34 33 33 35 34 35 34 35 34 33 33 33 32 33 35 36 36 37 36 32 30 29 28 26 25 21 22 13 9 5 7 9 13
28 27 31 34 34 34 34 33 31 30 30 32 33 34 34 32 32 30 30 31 31 30 29 36 35 33 32 30 28 25 22 19 10 4 3 7 10 11
32 30 29 34 37 35 33 32 31 29 29 30 32 32 32 31 31 29 28 29 28 28 27 27 27 28 31 28 29 27 23 20 8 5 4 7 9 10
25 28 29 29 36 36 34 33 31 29 29 29 30 31 31 30 30 29 28 30 30 28 27 26 27 27 27 28 27 24 24 18 9 6 6 8 8 9
19 12 16 28 36 35 33 31 31 29 28 28 28 29 30 30 29 28 28 28 30 29 28 26 27 30 31 33 27 23 28 18 11 10 10 12 9 7
21 15 8 19 35 34 32 31 30 28 27 27 26 27 29 30 29 28 27 27 27 26 26 24 28 29 30 32 28 23 23 19 14 14 13 11 9 6
18 18 12 26 33 32 31 30 28 27 26 25 25 26 27 28 28 28 27 27 27 27 28 26 27 27 26 22 27 24 27 20 18 17 13 11 10 8
14 12 11 9 33 32 31 29 27 25 25 24 25 25 26 27 28 29 28 28 28 28 28 29 25 21 24 28 29 21 20 20 11 11 9 13 11 9
20 11 11 7 4 32 31 31 27 26 22 24 24 24 25 25 26 27 28 28 28 28 27 27 26 24 24 27 24 22 22 20 19 14 13 14 12 13
Wind_Direction
348 346 345 343 342 342 341 342 340 335 333 333 328 328 324 317 321 313 298 297 284 271 262 261 290 2 26 43 27 11 10 10 4 356 356 356 7 4
349 344 342 341 339 338 336 335 336 334 329 328 319 320 319 305 308 331 309 289 276 261 260 242 270 334 50 44 12 9 22 18 7 1 355 359 15 14
344 341 339 338 335 333 331 329 328 329 324 319 316 316 322 310 306 316 319 288 283 279 270 263 268 304 341 350 357 21 25 28 19 12 0 3 23 24
340 337 335 333 330 330 329 325 323 323 321 312 311 310 310 315 308 304 313 300 289 292 277 276 274 287 301 315 347 16 18 33 23 18 12 8 29 27
337 335 333 332 330 329 327 323 319 317 315 312 306 307 307 318 312 307 301 296 295 294 285 274 269 278 290 310 317 340 357 8 19 25 23 20 33 37
333 333 334 333 330 328 324 321 319 315 313 310 305 302 303 307 313 306 299 303 296 288 286 276 276 269 279 291 307 322 353 357 8 21 25 26 38 44
334 333 333 332 328 326 323 318 316 315 313 311 306 300 298 298 304 305 302 295 294 283 285 288 271 268 259 270 280 309 343 17 5 20 23 36 42 52
331 332 332 331 328 325 323 323 317 310 306 309 306 299 294 295 299 300 293 291 301 281 279 278 275 277 253 257 272 293 328 10 8 16 30 43 45 62
327 329 329 329 327 324 322 321 320 315 311 306 304 305 296 293 293 291 285 270 272 281 289 300 286 282 255 249 266 282 310 347 5 21 37 52 52 60
327 326 325 324 326 323 324 321 318 315 313 309 302 300 300 292 288 284 278 272 271 291 313 295 287 281 270 249 267 272 293 357 21 26 51 66 63 61
324 323 321 321 322 325 324 318 313 313 311 303 297 295 290 288 286 284 273 274 270 273 286 290 286 282 281 258 260 271 281 352 25 30 76 74 71 70
320 318 317 319 320 321 317 315 310 307 303 297 291 290 288 284 279 279 276 268 269 266 272 286 275 272 273 264 254 271 281 310 23 37 118 106 92 80
316 315 314 315 315 313 313 312 310 309 304 298 291 287 283 282 279 274 272 269 265 261 260 273 268 272 268 269 255 260 273 287 315 352 145 154 146 105
313 313 313 313 311 308 307 307 306 305 301 295 289 287 282 280 280 277 270 268 262 259 257 259 264 266 268 265 260 254 260 275 299 323 96 128 118 110
315 312 309 308 307 304 300 299 299 300 296 293 286 284 282 280 279 278 272 266 262 258 254 254 256 260 258 260 258 256 256 258 279 312 8 62 56 56
321 320 312 305 304 302 299 296 297 297 295 290 285 282 278 279 276 278 272 266 265 260 259 252 251 252 254 258 258 258 253 258 261 309 21 354 354 24
321 318 317 307 299 298 296 293 292 295 291 288 284 279 276 274 273 275 271 266 263 259 258 256 250 254 252 258 255 256 250 255 251 263 296 321 333 7
326 318 316 313 299 293 290 287 286 290 288 285 282 276 272 270 269 270 267 259 257 258 256 258 250 253 256 254 256 253 248 247 239 249 266 293 318 340
334 319 320 313 292 285 282 283 283 287 286 283 281 275 268 267 266 266 263 258 255 255 254 258 251 248 248 249 254 256 241 235 226 246 258 274 297 326
348 347 328 326 277 274 277 276 282 286 284 283 280 274 265 261 261 263 262 258 256 257 256 258 250 247 247 244 247 249 243 238 225 236 250 272 301 331
359 356 351 268 275 274 276 277 282 285 285 283 279 274 265 260 260 260 262 261 257 255 252 255 254 251 251 250 242 249 238 238 235 234 243 257 277 290
0 1 0 250 276 278 275 281 284 287 286 282 275 270 266 261 259 257 259 259 256 254 253 254 257 250 247 243 237 243 237 231 226 225 256 263 268 273
359 359 1 356 337 277 278 273 281 284 288 278 273 269 265 262 260 257 257 257 257 255 254 254 254 246 247 245 237 235 234 229 224 221 252 268 277 280